Regional Weather Roundup
Issued by NWS Wakefield, VA

Home | Current Version | Previous Version | Text Only | Print | Product List | Glossary On
Versions: 1 2 3 4 5 6 7 8 9 10 11 12 13 14 15 16 17 18 19 20 21 22 23 24 25 26 27 28 29 30 31 32 33 34 35 36 37 38 39 40 41 42 43 44 45 46 47 48 49 50
000
ASUS41 KAKQ 020915
RWRAKQ

REGIONAL WEATHER ROUNDUP
NATIONAL WEATHER SERVICE WAKEFIELD VA
500 AM EDT THU JUL 02 2015

Note: "fair" indicates few or no clouds below 12,000 feet with no
significant weather and/or obstructions to visibility. * = Denotes
station may not report precipitation (e.g., rain,snow,etc.),
thunder or fog.

VAZ042-051-052>054-056-021000-
NORTHERN VIRGINIA

CITY           SKY/WX    TMP DP  RH WIND       PRES   REMARKS
WASH NATIONAL  MOCLDY    73  70  90 N3        29.88S
DULLES         CLOUDY    69  65  86 CALM      29.89R
FORT BELVOIR   MOCLDY    67  66  96 CALM      29.87S
QUANTICO       PTCLDY    74  65  73 NE5       29.87F
FREDERICKSBRG* NOT AVBL
STAFFORD*      NOT AVBL
WARRENTON      NOT AVBL
CULPEPER*      NOT AVBL
MANASSAS*      PTCLDY    68  66  94 NW5       29.88S
LEESBURG*      NOT AVBL
WINCHESTER     NOT AVBL
FRONT ROYAL*   NOT AVBL
LURAY*         NOT AVBL
$$

VAZ048-049-060>072-079>083-021000-
CENTRAL AND SOUTH CENTRAL VIRGINIA

CITY           SKY/WX    TMP DP  RH WIND       PRES   REMARKS
RICHMOND       MOCLDY    76  71  85 SW5       29.86S
CHESTERFIELD*  NOT AVBL
PETERSBURG*    NOT AVBL
HANOVER        PTCLDY    72  70  93 CALM      29.87F FOG
TAPPAHANNOCK*  PTCLDY    71  67  88 CALM      29.87F FOG
QUINTON*       NOT AVBL
CHARLOTTSVILLE CLOUDY    70  62  76 N5        29.88F
GORDONSVILLE*  NOT AVBL
ORANGE*        NOT AVBL
LOUISA*        NOT AVBL
BUMPASS*       NOT AVBL
FARMVILLE*     NOT AVBL
CREWE*         NOT AVBL
FORT PICKETT*  NOT AVBL
CHASE CITY*    NOT AVBL
CLARKSVILLE*   NOT AVBL
SOUTH HILL*    NOT AVBL
LAWRENCEVILLE* NOT AVBL
EMPORIA*         N/A     72  72 100 CALM      29.89
$$

VAZ088>098-021000-
SOUTHEAST VIRGINIA

CITY           SKY/WX    TMP DP  RH WIND       PRES   REMARKS
NORFOLK        MOCLDY    76  70  82 S8        29.87F
VIRGINIA BEACH CLOUDY    77  70  79 SW7       29.87F
NORFOLK NAVAL  MOCLDY    75  70  84 SW8       29.88F
WEST POINT*    NOT AVBL
SALUDA*        NOT AVBL
NEWPORT NEWS   MOCLDY    75  72  90 SW7       29.87F
LANGLEY AFB    MOCLDY    76  71  84 S7        29.85F
FORT EUSTIS    MOCLDY    76  76 100 S6        29.85F
WILLIAMSBURG*  NOT AVBL
HR EXEC AP*    FAIR      72  70  94 CALM      29.89F
FRANKLIN*      MOCLDY    73  71  95 S5        29.88F
WAKEFIELD      MOCLDY    75  71  87 S3        29.86F
$$

VAZ020-022-025-037-045-021000-
WEST CENTRAL AND SOUTHWEST VIRGINIA

CITY           SKY/WX    TMP DP  RH WIND       PRES   REMARKS
STAUNTON*      NOT AVBL
WAYNESBORO*    NOT AVBL
HOT SPRINGS VA FOG       63  63 100 W8        30.00F VSB 1/2
LYNCHBURG      LGT RAIN  69  66  90 SW3       29.91S
DANVILLE       MOCLDY    70  68  93 S6        29.90F
SOUTH BOSTON*  NOT AVBL
MARTINSVILLE   MOCLDY    68  68 100 CALM      29.95S FOG
ROANOKE        CLOUDY    71  64  78 W9        29.94S
BLACKSBURG     CLOUDY    67  65  96 CALM      30.00R
DUBLIN*        CLOUDY    66  66 100 CALM      29.99S
MARION*        NOT AVBL
HILLSVILLE*    NOT AVBL
RICHLANDS*     NOT AVBL
WISE*          NOT AVBL
ABINGDON*      NOT AVBL
$$

MDZ021>025-VAZ099-100-021000-
SOUTHERN MARYLAND AND THE DELMARVA PENINSULA

CITY           SKY/WX    TMP DP  RH WIND       PRES   REMARKS
PATUXENT RIVER TSTM      72  70  93 CALM      29.87S FOG
BAY BRIDGE APT   N/A     70  70 100 CALM      29.87F FOG
LEONARDTOWN    CLOUDY    70  68  94 CALM      29.88S
DOVER          CLOUDY    69  69 100 CALM      29.85F
GEORGETOWN     PTCLDY    68  66  93 CALM      29.88S
EASTON         CLEAR     69  69 100 CALM      29.90F FOG
CAMBRIDGE      CLEAR     72  68  88 CALM      29.86F
SALISBURY      CLEAR     68  66  93 CALM      29.87F
OCEAN CITY     CLEAR     67  65  93 CALM      29.87S FOG
WALLOPS ISLAND CLEAR     72  71  97 CALM      29.87F
ACCOMACK*      NOT AVBL
$$

NCZ012>017-030>032-021000-
NORTH CENTRAL AND EASTERN NORTH CAROLINA

CITY           SKY/WX    TMP DP  RH WIND       PRES   REMARKS
ROANOKE RAPIDS NOT AVBL
RALEIGH        CLOUDY    75  70  84 SW5       29.91S
ELIZABETH CITY CLOUDY    76  72  87 SW8       29.89F
AHOSKIE*       CLOUDY    72  70  94 S5        29.88F
EDENTON*       NOT AVBL
CURRITUCK*     NOT AVBL
KILL DEVIL HLS NOT AVBL
MANTEO         NOT AVBL
CAPE HATTERAS  PTCLDY    78  74  87 SW7       29.94F
TARBORO*       NOT AVBL
GOLDSBORO      CLOUDY    75  72  88 S3        29.89S
WASHINGTON     NOT AVBL
GREENVILLE     MOCLDY    77  72  83 SW6       29.93S
NEW BERN       PTCLDY    74  71  91 SW6       29.94S
WILMINGTON     PTCLDY    77  71  82 SW8       29.94S
$$

VAZ048-021000-
ELSEWHERE

CITY           SKY/WX    TMP DP  RH WIND       PRES   REMARKS
HARRISBURG PA  MOCLDY    63  60  90 NW3       29.89S
BALTIMORE      MOCLDY    66  64  93 CALM      29.87F
ANNAPOLIS      CLEAR     72  69  90 VRB3      29.86F FOG
ANDREWS AFB    CLEAR     66  66  99 N5        29.87F
PHILADELPHIA   PTCLDY    70  62  76 CALM      29.88S
GREENSBORO     CLOUDY    72  67  84 W5        29.93R
ROCKY MOUNT    MOCLDY    75  71  87 S6        29.89F
$$

VAZ100-021000-
MARINE

STATION/POSITION TIME  TEMP    WIND        PRES    WAVE   SWELL
                       AIR SEA DIR/SP/G            HT/PER HT/PER
                 (UTC) (F)     (DEG/KT/KT) (MB)    (FT/S) (FT/S)
BRANDYWINE LGT   0800   73 74  330/  3/  3 1011.8F
CAPE MAY NJ      0800   74 78  330/  3/  5 1011.3F
LEWES DE         0800   72 72     CALM     1011.4F
15NM E FENWICK I 0850   74 73              1011.3F   4/ 6
OCEAN-CITY-INLET 0800   72 73  220/  2/  2 1011.5F
WACHAPREAGUE VA  0800   76 82  220/  3/  4 1011.9F
GOOSES REEF MD   0900   76 78  100/  4/  4 1012.2F
COVE POINT MD    0800   74     120/  3/  4 1011.9F
SOLOMONS ISLAND  0800      80                N/A
BISHOPS HEAD MD  0800   75      70/  5/  7 1011.1F
PINEY POINT MD   0800          130/  6/  6   N/A
CAMBRIDGE MD     0800   72 80  110/  1/  2 1011.3F
LEWISETTA VA     0800   75 80  210/  3/  3 1011.0F
RAPPAHANNOCK LGT 0800          210/  9/ 11 1012.0F
STINGRAY PT      0900   79 80  250/ 10/ 14 1011.1F   0
YORK RVR RNG VA  0800   79     230/ 10/ 11 1011.0F
YORKTOWN VA      0800   77 80  210/  7/ 11 1011.2F
JAMESTOWN VA     0900   76 83  210/  8/ 10   N/A
DOMINION TERM VA 0800   78     220/ 12/ 13 1011.6F
KIPTOPEKE VA     0800      83  220/  8/ 10   N/A
CHES BAY BRIDGE  0800   78 77  210/ 10/ 12 1011.5F
CAPE HENRY VA    0800   77     210/  6/  8 1010.4F
CHESAPEAKE LGHT  0800   77     210/ 12/ 12 1012.8F
WILLOUBY STN VA  0800   77     230/  9/ 10 1012.7F
CAPE HENRY BUOY  0828      78                N/A     3/ 8
1ST LANDING BUOY 0900      76              1011.2F   2/ 4
CAPE CHARLES BUO 0826      75                N/A     3/ 8   2/ 8
OFFSHORE WE BUOY 0811      78                N/A     4/ 8   3/ 8
64NM E OF VA BCH 0850   78 77  220/  6/  8 1012.1F   4/ 8   3/ 8
DUCK PIER NC     0800   78 65  230/ 10/ 13 1012.0F
44100 DUCK FRF   0824      77                N/A     3/ 8
44056 DUCK FRF   0811      69                N/A     2/ 8
OREGON INLET NC  0800   78 81  220/ 11/ 12 1013.2F
HATTERAS NC      0800   76 80  210/  5/  6 1013.5F
DIAMOND SHLS NC  0850   80 82  230/ 16/ 19 1013.7F   5/ 5   2/14
CAPE LOOKOUT NC  0900   80     220/  9/ 12 1013.7F
$$



USA.gov is the U.S. government's official web portal to all federal, state and local government web resources and services.